Location: Tucson
(32.2217°N, 110.9265°W)
Time: 02:29:25
(UTC-07:00)

Tiros 1 - Pass Details

Date: 26 October 2021
Orbit: 630 x 663 km, 48.4° (Epoch: 07 December)

Event Time Altitude Azimuth Distance (km) Brightness Sun altitude
Rises 09:15:39 0° 244° (WSW) 2,981 10.3 29.1°
Reaches altitude 10° 09:18:04 10° 250° (WSW) 2,069 9.6 29.5°
Maximum altitude 09:22:41 48° 325° (NW) 861 7.7 30.2°
Drops below altitude 10° 09:27:18 10° 40° (NE) 2,063 9.8 31.0°
Sets 09:29:42 0° 46° (NE) 2,971 10.6 31.3°
